sat.trackr.live / text

‹ back to catalog

KONDOR-FKA NO. 2

NORAD 62138 · 2024-223A

PAYLOAD ACTIVE UNKNOWN

§ Identity

Operator
Country
CIS
Launch date
2024-11-29
Launch site
VOSTO
Launch vehicle
Mass (kg)
RCS (m²)

External: N2YO · Heavens-Above · Gunter

§ Orbital elements

Epoch: 2026-05-25T04:47:10.947264Z

Period
94.75 min
Inclination
97.4384°
Eccentricity
0.0001694
Mean motion
15.19756101 rev/d
Perigee alt
505.4 km
Apogee alt
507.7 km
Semi-major
6,884.7 km
B*
1.5858e-4
RAAN
348.9723°
Arg perigee
92.8223°
Mean anomaly
267.3205°
Rev number
8,221

§ Raw data

KONDOR-FKA NO. 21 62138U 24223A   26145.19943226  .00003323  00000+0  15858-3 0  99972 62138  97.4384 348.9723 0001694  92.8223 267.3205 15.19756101 82213

JSON: /api/v1/satellites/62138 · /tle

For live sub-satellite position, see the globe view (requires WebGL).

§ Visibility from observer

Set your observer location to see the next 7 days of passes ≥ 10°. The values pass through the URL so the page stays shareable.

No JS? Fill the form by hand. The geolocation button needs JavaScript.